Weather observations for the past three days for
Annapolis, United States Naval Academy
Imperial (Metric)
Date Time (edt) Wind (mph) Vis. (mi.) Weather Sky Cond. Temperature (ºF) Relative Humidity Wind Chill (°F) Heat Index (°F) Pressure Precipitation (in)
Air Dwpt 6 hour altimeter (in) sea level (mb) 1 hr 3 hr 6 hr
Max. Min.
13 15:54 SE 14 G 25 10.00 Fair CLR 84 70 63% 88 29.96 1014.8
13 14:54 SE 16 10.00 Fair CLR 82.9 71.1 67% 88 29.98 1015.3
13 13:54 SE 15 10.00 Fair CLR 82 71.1 82 73 69% 86 30 1015.9
13 12:54 SE 14 10.00 A Few Clouds FEW060 79 70 74% 82 30.01 1016.3
13 11:54 SE 14 10.00 Fair CLR 79 70 74% 82 30.02 1016.7
13 10:54 S 9 10.00 Fair CLR 78.1 68 71% 80 30.02 1016.9
13 09:54 SE 12 10.00 Fair CLR 75.9 69.1 79% 77 30.03 1017.0
13 08:54 S 5 10.00 Mostly Cloudy BKN048 BKN060 75 66 74% 76 30.04 1017.5
13 07:54 SE 3 10.00 A Few Clouds FEW048 73 64.9 73 66 76% 30.03 1017.2
13 06:54 SE 3 10.00 A Few Clouds FEW048 71.1 64.9 81% 30.04 1017.3
13 05:54 Calm 10.00 Mostly Cloudy BKN048 66.9 64 91% 30.02 1016.8
13 04:54 Calm 10.00 Fair CLR 66 62.1 87% 30.01 1016.3
13 03:54 Calm 10.00 Fair CLR 66.9 62.1 84% 30 1015.9
13 02:54 Calm 10.00 Fair CLR 68 63 84% 30 1016.1
13 01:54 Calm 10.00 Fair CLR 69.1 61 75 69.1 76% 30.01 1016.4
13 00:54 S 3 10.00 Fair CLR 71.1 62.1 73% 30.02 1016.8
12 23:54 Calm 10.00 Fair CLR 70 62.1 76% 30.02 1016.9
12 22:54 S 3 10.00 Fair CLR 73 62.1 69% 30.03 1017.0
12 21:54 S 7 10.00 Partly Cloudy SCT065 73 63 71% 30.02 1016.8
12 20:54 S 9 10.00 Mostly Cloudy BKN070 73.9 62.1 67% 30 1016.1
12 19:54 S 9 10.00 Partly Cloudy SCT070 75 62.1 78.1 73.9 64% 77 30 1016.1
12 18:54 S 10 10.00 Fair CLR 75.9 61 60% 78 30 1015.9
12 17:54 S 10 10.00 Fair CLR 78.1 59 52% 79 29.99 1015.9
12 16:54 SE 13 10.00 Fair CLR 77 60.1 56% 79 30.01 1016.3
12 15:54 SE 12 10.00 A Few Clouds FEW075 78.1 61 56% 80 30.01 1016.4
12 14:54 SE 13 10.00 Partly Cloudy SCT070 77 59 54% 79 30.02 1016.7
12 13:54 SE 10 10.00 Mostly Cloudy BKN065 75 59 75.9 66 58% 77 30.04 1017.5
12 12:54 SE 9 10.00 Mostly Cloudy BKN060 75 57.9 55% 78 30.06 1018.0
12 11:54 N 3 10.00 Fair CLR 75.9 57 52% 78 30.06 1018.1
12 10:54 N 5 10.00 Fair CLR 73.9 57.9 57% 30.06 1018.2
12 09:54 N 5 10.00 Fair CLR 72 57 59% 30.07 1018.4
12 08:54 N 5 10.00 Partly Cloudy SCT075 70 59 68% 30.07 1018.4
12 07:54 Calm 10.00 A Few Clouds FEW075 66.9 57.9 66.9 60.1 73% 30.07 1018.5
12 06:54 W 3 10.00 Mostly Cloudy BKN070 63 59 87% 30.07 1018.3
12 05:54 Calm 10.00 Fair CLR 60.1 55.9 86% 30.05 1017.8
12 04:54 W 3 10.00 Fair CLR 61 55.9 84% 30.04 1017.5
12 03:54 W 3 10.00 Fair CLR 61 57 87% 30.03 1017.0
12 02:54 Calm 10.00 Fair CLR 63 59 87% 30.02 1016.7
12 01:54 Calm 10.00 Fair CLR 64 61 71.1 63 90% 30.02 1016.7
12 00:54 Calm 10.00 Fair CLR 64.9 57.9 78% 30.02 1016.6
11 23:54 NW 3 10.00 Fair CLR 66.9 59 76% 30.02 1016.6
11 22:54 Calm 10.00 Fair CLR 66 55.9 70% 30.01 1016.5
11 21:54 W 3 10.00 Fair CLR 66 53.1 63% 30 1016.1
11 20:54 W 3 10.00 A Few Clouds FEW049 68 53.1 59% 29.97 1015.2
11 19:54 W 7 10.00 Fair CLR 71.1 53.1 73 71.1 53% 29.96 1014.7
11 18:54 W 7 10.00 Fair CLR 72 54 53% 29.95 1014.5
11 17:54 NW 12 10.00 Fair CLR 72 55 55% 29.95 1014.3
11 16:54 NW 12 10.00 Fair CLR 73 54 51% 29.95 1014.2
11 15:54 NW 14 10.00 A Few Clouds FEW050 72 55 55% 29.94 1014.0
11 14:54 NW 10 10.00 Mostly Cloudy BKN050 BKN070 73 55 53% 29.94 1013.9
11 13:54 NW 5 10.00 Mostly Cloudy BKN050 BKN065 73 55.9 73 66.9 55% 29.94 1014.0
11 12:54 NW 7 10.00 Partly Cloudy SCT060 72 55 55% 29.94 1014.1
11 11:54 NW 7 10.00 Fair CLR 71.1 55 57% 29.94 1013.9
11 10:54 NW 7 10.00 Overcast OVC090 70 55.9 61% 29.94 1014.1
11 09:54 NW 8 10.00 Overcast BKN060 OVC090 69.1 55.9 63% 29.94 1014.0
11 08:54 NW 8 10.00 Mostly Cloudy BKN055 68 55.9 65% 29.94 1014.1
11 07:54 NW 9 10.00 A Few Clouds FEW090 66.9 55.9 68 64.9 68% 29.93 1013.6
11 06:54 N 9 10.00 Overcast OVC100 66 57 73% 29.9 1012.8
11 05:54 N 7 10.00 Mostly Cloudy BKN100 66 57.9 75% 29.88 1011.9
11 04:54 N 7 10.00 Fair CLR 64.9 59 81% 29.85 1010.9
11 03:54 N 7 10.00 Overcast FEW060 SCT075 OVC095 66.9 59 76% 29.85 1010.9
11 02:54 Calm 10.00 Overcast FEW065 OVC085 64.9 61 87% 29.85 1010.9
11 01:54 Calm 10.00 Overcast FEW075 OVC095 66.9 61 75.9 64.9 81% 29.84 1010.6
11 00:54 Calm 10.00 Overcast BKN075 OVC095 66 61 84% 29.84 1010.7
10 23:54 NW 7 10.00 Overcast BKN075 OVC090 73 55.9 55% 29.83 1010.1
10 22:54 NW 5 10.00 Overcast SCT075 OVC095 73 55.9 55% 29.8 1009.4
10 21:54 N 6 10.00 Mostly Cloudy BKN110 73.9 57 56% 29.77 1008.4
10 20:54 N 3 10.00 Overcast OVC085 75 57.9 55% 78 29.75 1007.6
10 19:54 N 3 10.00 Overcast OVC085 75.9 57 80.1 75.9 52% 78 29.73 1006.9
10 18:54 Calm 10.00 Overcast OVC090 77 55 47% 78 29.72 1006.4
10 17:54 Calm 10.00 Mostly Cloudy BKN120 78.1 55 45% 79 29.7 1006.0
10 16:54 NW 6 10.00 Mostly Cloudy FEW080 BKN100 78.1 54 43% 79 29.7 1006.0
Date Time (edt) Wind (mph) Vis. (mi.) Weather Sky Cond. Air Dwpt Max. Min. Relative Humidity Wind Chill (°F) Heat Index (°F) altimeter (in) sea level (mb) 1 hr 3 hr 6 hr
6 hour
Temperature (ºF) Pressure Precipitation (in)